Location: Alafon
(8.4500°N, 4.2333°E)
Time: 17:07:01
(UTC+00:00)

Transit 2A - Pass Details

Date: 04 August 2021
Orbit: 595 x 964 km, 66.7° (Epoch: 18 September)

Event Time Altitude Azimuth Distance (km) Brightness Sun altitude
Rises 03:20:24 0° 182° (S) 2,884 - -31.9°
Reaches altitude 10° 03:22:53 10° 172° (S) 1,949 - -31.3°
Maximum altitude 03:26:43 31° 109° (ESE) 1,048 - -30.5°
Exits shadow 03:27:11 30° 96° (E) 1,065 7.1 -30.4°
Drops below altitude 10° 03:30:30 10° 47° (NE) 1,922 8.9 -29.6°
Sets 03:32:56 0° 36° (NE) 2,837 9.8 -29.1°
